KC5DJY-13 Weather Reports


time (UTC)temp
F
wind
direction
speed
knots
gust
knots
rain 1hr
in
rain 24hr
in
rain mn
in
humidity
%
barometer
mb
20260510055410 75 145 0.0 0.9 0.00 0.00 0.00 93 1010.1
20260510053911 75 141 0.9 3.5 0.00 0.00 0.00 93 1010.2
20260510052411 75 131 4.3 7.8 0.00 0.00 0.00 93 1010.3
20260510050910 75 148 0.9 3.5 0.00 0.00 0.00 93 1010.3
20260510045410 75 151 2.6 4.3 0.05 0.05 0.00 94 1010.5
20260510043910 75 136 2.6 5.2 0.05 0.05 0.00 94 1010.8
20260510042410 75 136 0.9 5.2 0.05 0.05 0.00 95 1010.8
20260510040910 75 151 0.0 2.6 0.05 0.05 0.00 95 1011.0
20260510035410 75 150 0.9 1.7 0.05 0.05 0.00 94 1010.9
20260510033911 76 132 0.0 1.7 0.05 0.05 0.00 94 1010.7
20260510032409 77 150 3.5 3.5 0.03 0.03 0.16 92 1010.5
20260510030910 77 153 1.7 3.5 0.00 0.00 0.00 89 1011.3
20260510025411 78 94 0.0 5.2 0.00 0.00 0.00 89 1010.5
20260510023909 78 146 1.7 5.2 0.00 0.00 0.00 88 1010.2
20260510022410 78 135 1.7 4.3 0.00 0.00 0.00 86 1010.1
20260510020911 79 151 0.0 2.6 0.00 0.00 0.00 85 1009.6
20260510015410 80 147 1.7 4.3 0.00 0.00 0.00 74 1009.0
20260510013912 80 157 0.9 4.3 0.00 0.00 0.00 70 1008.4
20260510012411 81 147 3.5 5.2 0.00 0.00 0.00 70 1008.1
20260510010910 82 143 2.6 3.5 0.00 0.00 0.00 67 1007.7
20260510005409 84 142 2.6 3.5 0.00 0.00 0.00 57 1007.3
20260510003910 84 153 2.6 3.5 0.00 0.00 0.00 55 1007.3
20260510002410 84 150 0.0 4.3 0.00 0.00 0.00 60 1007.3
20260510000910 85 155 0.9 3.5 0.00 0.00 0.00 60 1007.3
20260509235409 85 153 0.9 2.6 0.00 0.00 0.00 65 1007.0
20260509233910 85 145 1.7 3.5 0.00 0.00 0.00 66 1006.9
20260509232410 86 158 1.7 2.6 0.00 0.00 0.00 65 1006.8
20260509230909 87 149 0.0 1.7 0.00 0.00 0.00 65 1006.9
20260509225410 87 143 0.9 4.3 0.00 0.00 0.00 66 1006.8
20260509223910 88 146 1.7 2.6 0.00 0.00 0.00 65 1006.7
20260509222409 89 135 0.9 2.6 0.00 0.00 0.00 63 1006.5
20260509220910 90 157 0.0 1.7 0.00 0.00 0.00 57 1006.4
20260509215532 93 112 0.9 0.9 0.00 0.00 0.00 51 1006.4
20260509214033 93 158 0.0 0.9 0.00 0.00 0.00 43 1006.5
20260509212532 93 237 0.9 2.6 0.00 0.00 0.00 40 1006.3
20260509211032 93 354 0.0 1.7 0.00 0.00 0.00 43 1006.6
20260509210927 93 354 0.0 1.7 0.00 0.00 0.00 43 1006.6
20260509210427 93 54 0.0 1.7 0.00 0.00 0.00 43 1006.7
20260509205928 93 195 0.9 0.9 0.00 0.00 0.00 42 1006.7
20260509205444 93 254 0.9 1.7 0.00 0.00 0.00 44 1006.8
20260509204926 92 233 1.7 1.7 0.00 0.00 0.00 44 1006.8
20260509203927 92 348 0.0 2.6 0.00 0.00 0.00 46 1006.7
20260509203622 92 348 0.0 2.6 0.00 0.00 0.00 46 1006.7
20260509203119 93 202 2.6 4.3 0.00 0.00 0.00 42 1006.7
20260509202623 92 197 0.0 0.9 0.00 0.00 0.00 45 1006.8
20260509201956 92 227 0.0 0.9 0.00 0.00 0.00 47 1006.9